Grand Rapids, MI

5:23 AM EDT on March 23, 2017 (GMT -0400)
Gerald R. Ford International

Weather History for KGRR - October, 2010

Change the Weather History Date:

Friday, October 8, 2010

  Actual Average Record
Temperature  
Mean Temperature 61 °F 54 °F  
Max Temperature 78 °F 63 °F 88 °F (2007)
Min Temperature 43 °F 44 °F 28 °F (1989)
Degree Days  
Heating Degree Days 4 12  
Month to date heating degree days 93 84  
Since 1 July heating degree days 212 236  
Cooling Degree Days 0 0  
Month to date cooling degree days 0 4  
Year to date cooling degree days 964 696  
Growing Degree Days 10 (Base 50)    
Moisture  
Dew Point 41 °F    
Average Humidity 60    
Maximum Humidity 100    
Minimum Humidity 20    
Precipitation  
Precipitation 0.00 in 0.10 in 0.96 in (1994)
Month to date precipitation 0.32 0.88  
Year to date precipitation 28.99 29.88  
Snow  
Snow 0.00 in 0.00 in T in (2000)
Month to date snowfall 0.0 0.0  
Since 1 July snowfall 0.0 0.0  
Since 1 September snowfall 0.0 0.0  
Snow Depth 0.00 in    
Sea Level Pressure  
Sea Level Pressure 30.03 in    
Wind  
Wind Speed 8 mph (SW)    
Max Wind Speed 22 mph    
Max Gust Speed 28 mph    
Visibility 9 miles    
Events      
T = Trace of Precipitation, MM = Missing Value Source: NWS Daily Summary

Daily Weather History Graph

Daily Weather History Graph

Search for Another Location

Airport or City:

Trip Planner

Search our weather history database for the weather conditions in past years. The results will help you decide how hot, cold, wet, or windy it might be!

Date:

Astronomy

Oct. 08, 2010 Rise Set
Actual Time 7:47 AM EDT 7:11 PM EDT
Civil Twilight 7:18 AM EDT 7:39 PM EDT
Nautical Twilight 6:46 AM EDT 8:12 PM EDT
Astronomical Twilight 6:13 AM EDT 8:45 PM EDT
Moon 8:56 AM EDT (10/8) 7:20 PM EDT (10/8)
Length of Visible Light 12h 20m
Length of Day
11h 23m
New Moon, 1% of the Moon is Illuminated
Oct 8
New Moon
Oct 14
First Quarter
Oct 22
Full
Oct 30
Last Quarter
Nov 6
New

Hourly Weather History & Observations

Time (EDT) Temp. Windchill Dew Point Humidity Pressure Visibility Wind Dir Wind Speed Gust Speed Precip Events Conditions
12:53 AM 45.0 °F 42.6 °F 42.1 °F 90% 30.07 in 10.0 mi South 4.6 mph - N/A   Clear
1:53 AM 44.1 °F 42.5 °F 42.1 °F 93% 30.07 in 8.0 mi South 3.5 mph - N/A   Clear
2:53 AM 43.0 °F 40.3 °F 41.0 °F 93% 30.07 in 8.0 mi SSE 4.6 mph - N/A   Clear
3:53 AM 43.0 °F 41.3 °F 41.0 °F 93% 30.06 in 7.0 mi South 3.5 mph - N/A   Clear
4:53 AM 43.0 °F 39.5 °F 42.1 °F 97% 30.05 in 6.0 mi South 5.8 mph - N/A   Clear
5:53 AM 44.1 °F 41.5 °F 42.1 °F 93% 30.06 in 7.0 mi South 4.6 mph - N/A   Clear
6:53 AM 45.0 °F 43.5 °F 42.1 °F 90% 30.06 in 10.0 mi South 3.5 mph - N/A   Clear
7:53 AM 44.1 °F - 42.1 °F 93% 30.07 in 7.0 mi Calm Calm - N/A   Partly Cloudy
8:53 AM 48.0 °F - 46.0 °F 93% 30.07 in 6.0 mi South 4.6 mph - N/A   Partly Cloudy
9:53 AM 59.0 °F - 53.1 °F 81% 30.08 in 9.0 mi WSW 4.6 mph - N/A   Partly Cloudy
10:53 AM 64.9 °F - 52.0 °F 63% 30.07 in 10.0 mi WSW 8.1 mph - N/A   Partly Cloudy
11:53 AM 69.1 °F - 51.1 °F 53% 30.06 in 10.0 mi WSW 6.9 mph - N/A   Partly Cloudy
12:53 PM 73.9 °F - 46.9 °F 38% 30.05 in 10.0 mi West 13.8 mph - N/A   Partly Cloudy
1:53 PM 75.9 °F - 39.9 °F 27% 30.03 in 10.0 mi WSW 13.8 mph - N/A   Partly Cloudy
2:53 PM 77.0 °F - 37.0 °F 24% 30.01 in 10.0 mi West 16.1 mph 21.9 mph N/A   Partly Cloudy
3:53 PM 77.0 °F - 34.0 °F 21% 29.99 in 10.0 mi WSW 16.1 mph - N/A   Partly Cloudy
4:53 PM 75.9 °F - 35.1 °F 23% 29.98 in 10.0 mi WSW 17.3 mph - N/A   Clear
5:53 PM 73.0 °F - 35.1 °F 25% 29.99 in 10.0 mi WSW 12.7 mph - N/A   Clear
6:53 PM 70.0 °F - 36.0 °F 29% 29.99 in 10.0 mi SW 10.4 mph - N/A   Clear
7:53 PM 64.0 °F - 37.9 °F 38% 29.98 in 10.0 mi SW 8.1 mph - N/A   Clear
8:53 PM 64.9 °F - 37.9 °F 37% 29.97 in 10.0 mi SW 11.5 mph - N/A   Clear
9:53 PM 63.0 °F - 37.9 °F 40% 29.97 in 10.0 mi SW 8.1 mph - N/A   Clear
10:53 PM 64.0 °F - 39.0 °F 40% 29.97 in 10.0 mi SW 8.1 mph - N/A   Clear
11:53 PM 64.0 °F - 39.9 °F 41% 29.97 in 10.0 mi SW 6.9 mph - N/A   Clear